Other Surface Observations
Issued by NWS

Home | Current Version | Previous Version | Text Only | Print | Product List | Glossary On
Versions: 1 2 3 4 5 6 7 8 9 10 11 12 13 14 15 16 17 18 19 20 21 22 23 24 25 26 27 28 29 30 31 32 33 34 35 36 37 38 39 40 41 42 43 44 45 46 47 48 49 50
930
SXUS52 KTAE 260219
OSOTAE
OSOTAE
North Florida/South Alabama/Southwest Georgia Weather Roundup
National Weather Service Tallahassee Florida
1000 PM EDT MON SEP 25 2017

Note: "fair" indicates few or no clouds below 12,000 feet with no
significant weather and/or obstructions to visibility.

!FLZ017-115-028-034-025-260300
...North Florida...

CITY           SKY/WX    TMP DP  RH WIND       PRES   REMARKS
TALLAHASSEE    CLEAR     76  71  85 CALM      29.89R
APALACHICOLA   CLEAR     76  76 100 CALM      29.89R
PERRY          CLEAR     76  73  90 CALM      29.90R
CROSS CITY     CLEAR     76  72  88 CALM      29.94R
JACKSONVILLE   CLEAR     73  72  96 CALM      29.89R
$$

!FLZ112-006-005-002-011-260300
...Florida Panhandle...

CITY           SKY/WX    TMP DP  RH WIND       PRES   REMARKS
MARIANNA       PTCLDY    77  71  82 CALM      29.89R
BONIFAY        NOT AVBL
PANAMA CITY NW FAIR      74  73  97 CALM      29.89R
TYNDALL AFB    CLEAR     76  74  93 CALM      29.90R
TYND DRONE APT MOCLDY    73  73 100 CALM      29.90R
DE FUNIAK SPR  FAIR      77  70  79 CALM      29.92R
EGLIN AFB      CLEAR     77  73  86 CALM      29.89R
DESTIN         CLEAR     83  73  72 CALM      29.89R
HURLBURT       CLEAR     77  70  78 CALM      29.88R
CRESTVIEW      PTCLDY    75  72  90 CALM      29.91R
PENSACOLA      CLEAR     80  72  76 E5        29.90R
$$

!ALZ063-066-260300
...South Alabama...

CITY           SKY/WX    TMP DP  RH WIND       PRES   REMARKS
DOTHAN         CLEAR     73  71  93 CALM      29.94R
OZARK CAIRNS   PTCLDY    78  69  73 N3        29.91R
FT RUCKER HELI CLEAR     72  71  96 CALM      29.91R
RUCKER HELI 3  FAIR      77  70  81 CALM      29.91R
RUCKER HELI 2  FAIR      75  70  84 NW3       29.90R
FLORALA APT    NOT AVBL
ANDALUSIA      CLEAR     76  69  79 CALM      29.91R
TROY           CLEAR     72  72 100 CALM      29.93R
EUFALA         FAIR      71  69  93 CALM      29.91R
MOBILE         CLOUDY    73  71  93 CALM      29.91R
$$

!GAZ120>161-260300
...Southwest and South Central Georgia...

CITY           SKY/WX    TMP DP  RH WIND       PRES   REMARKS
THOMASVILLE    FAIR      73  70  88 CALM      29.91R
BAINBRIDGE     CLEAR     79  72  78 CALM      29.90R
MOODY AFB      CLEAR     75  67  78 CALM      29.90R
VALDOSTA       CLEAR     72  67  84 CALM      29.90R
MOULTRIE       CLEAR     77  66  69 CALM      29.92R
BLAKELY        CLEAR     73  68  83 CALM      29.91R
ALBANY         CLEAR     76  63  64 NE3       29.92R
TIFTON         FAIR      74  62  66 NE3       29.91R
FITZGERALD     MOCLDY    70  67  91 CALM      29.94R
CORDELE        FAIR      73  67  79 CALM      29.93R
AMERICUS       FAIR      68  61  77 CALM      29.95R
HOMERVILLE     FAIR      72  66  83 CALM      29.90S
$$

!GMZ750-755-770-775-260300
...Coastal and Buoy Obs...

STATION/POSITION TIME  TEMP    WIND        PRES    VSBY  WAVE
                       AIR SEA DIR/SP/G                  HT/PER
                 (UTC) (F)     (DEG/KT/KT) (MB)    (MI)  (FT/S)
KEATON BEACH     0200   79      CALM  /  1 1012.1R
CEDAR KEY        0200   82     310/  5/  6 1012.5R
C TOWER          0200   80     190/  2/  2 1013.2R
APALACHICOLA BUO 0150   81 83   70/  4/  6 1012.1R         1/ 3
PANAMA CITY BUOY 0150   81 82   90/  4/  4 1011.8R         2/ 5
MOBILE BUOY      0200   81 83  120/  8/ 10 1011.6
ORANGE BCH AL BU 0150   80 82  100/  8/ 10 1011.7R         2/ 5
$$




USA.gov is the U.S. government's official web portal to all federal, state and local government web resources and services.